Regional Weather Roundup
Issued by NWS

Home | Current Version | Previous Version | Text Only | Print | Product List | Glossary Off
Versions: 1 2 3 4 5 6 7 8 9 10 11 12 13 14 15 16 17 18 19 20 21 22 23 24 25 26 27 28 29 30 31 32 33 34 35 36 37 38 39 40 41 42 43 44 45 46 47 48 49 50

000
ASUS43 KFSD 291710
RWRSD

WEATHER ROUNDUP FOR SOUTH DAKOTA
NATIONAL WEATHER SERVICE SIOUX FALLS SD
1200 PM CDT SUN MAY 29 2016

NOTE: "FAIR" INDICATES FEW OR NO CLOUDS BELOW 12,000 FEET WITH NO
SIGNIFICANT WEATHER AND/OR OBSTRUCTIONS TO VISIBILITY.


SDZ001>005-009-010-012>017-291800-
NORTHWEST AND NORTH CENTRAL SOUTH DAKOTA

CITY           SKY/WX    TMP DP  RH WIND       PRES   REMARKS
BUFFALO          N/A     75  37  25 W9        29.99F
FAITH            N/A     70  51  51 SE8       30.06F
MOBRIDGE       SUNNY     72  50  45 VRB5      30.03S
$$

SDZ012>016-024>037-041>051-057-063-072>074-291800-
SOUTHWEST AND SOUTH CENTRAL SOUTH DAKOTA

CITY           SKY/WX    TMP DP  RH WIND       PRES   REMARKS
RAPID CTY ARPT PTSUNNY   69  50  50 SE7       30.10S
PIERRE         SUNNY     71  52  50 VRB3      30.06S
CUSTER         MOSUNNY   60  43  53 E6G18     30.17S
ELLSWORTH AFB  CLOUDY    68  50  52 S10       30.09S
PHILIP         SUNNY     72  54  53 SE7       30.07F
PINE RIDGE     SUNNY     71  45  39 SE9       30.09F
WINNER         FAIR      74  53  48 E6        30.08F
$$

SDZ004>011-016>023-039-040-291800-
NORTHEAST SOUTH DAKOTA

CITY           SKY/WX    TMP DP  RH WIND       PRES   REMARKS
ABERDEEN       SUNNY     76  45  33 N14G23    30.02R
WATERTOWN      SUNNY     71  55  56 W13       30.03R
BROOKINGS      SUNNY     70  57  63 W14       30.04S
SISSETON         N/A     74  54  49 NW14G24   29.97S
$$

SDZ017-020-022-023-036>040-048>070-291800-
SOUTHEAST SOUTH DAKOTA

CITY           SKY/WX    TMP DP  RH WIND       PRES   REMARKS
SIOUX FALLS    MOSUNNY   73  59  61 W10       30.06R
HURON          SUNNY     73  56  54 NW7       30.05R
CHAMBERLAIN    SUNNY     73  56  54 CALM      30.07F
MITCHELL       SUNNY     73  57  57 NW7       30.07S
YANKTON        MOSUNNY   72  61  68 W8        30.07R
$$

ABBREVIATIONS USED IN REMARKS
   TC - TEMPERATURE IN CELSIUS
  WCI - WIND CHILL INDEX
   HX - HEAT INDEX
  VSB - VISIBILITY




USA.gov is the U.S. government's official web portal to all federal, state and local government web resources and services.